MIDAS 3 DEB, 25793

Orbit data source: Space-Track

MIDAS 3 DEB, 25793 is space debris in LEO originally from a launch on Wed, 12 Jul 1961 UTC launched from the Air Force Western Test Range (AFWTR). Debris objects in space refer to the collection of defunct objects orbiting the Earth. Examples of debris include non-operational satellites, rocket bodies, and fragments generated from explosions, collisions, or faulty payload assembly.

Loading next visibility...
MIDAS 3 DEB details
Identifier
25793, 1961-018F
Orbit
LEO
Last TLE update1 week ago
Origin
Flag of USUSAF SSD (US)
ManufacturerUnknown
MissionSpacecraft
Bus & MotorUnknown
MassUnknown
Launch date (UTC)
1961-07-12 (63 years ago)
Launch vehicleUnknown
Launch site
Air Force Western Test Range (AFWTR)
Object type
Payload
Rocket body
Debris
Shape & HBRUnknown
Radar Cross SectionMedium (>0.1 m² and <1 m²)

Expand to show TLE details & history

TLE from 1 week ago
0 MIDAS 3 DEB
1 25793U 61018F   24349.53372781 -.00000007  00000-0 -28201-2 0  9994
2 25793  91.1189 195.1312 0126789 312.2480  46.7696  8.93201513952323
Epoch: 2024-12-14T12:48Z
Definitive object data (Epoch: 2024-12-14T12:48:34.082Z)
Latitude-0.00003°
Longitude-80.69479°
Altitude3,351.988 km
Speed6.429 km/s
True Right ascension13h 00m 31s
True Declination0° 00' 00"
Sunlit
Object was in daylight at TLE epoch
Visualization TLE readout
Latitude21.40792°
Longitude100.04334°
Altitude3,538.778 km
Speed6.309 km/s
Apparent Right ascension00h 35m 04s
Apparent Declination-1° 54' 53"
Sunlit
Object is in daylight
Visualization observer readout
Local Sidereal Time11:41:11
Azimuth338.725° N
Elevation-50.076°
Doppler factor1
Orbital elements
Apogee altitude3,556.264 km
Perigee altitude3,307.503 km
Semi-major axis9,810.02 km
Eccentricity0.0126789
Inclination91.1189°
RAAN195.1312°
Arg. of periapsis312.248°
True anomaly47.83974°
Mean anomaly46.7696°
Eccentric anomaly47.30351°
Mean motion2.23377 °/min
BSTAR-0.0028201
Orbital period161.16 mins
Loading maneuver chart data...
Loading historical data...
Loading historical data...
Loading historical data...
Loading historical data...
Loading historical data...
Loading historical data...
Loading historical data...

MIDAS 3 DEB Visibility forecast

Observer location: undefined°, undefined

Span
Click to sort rows by Start time (UTC) header in descending order
Start Az.
Max El. time (UTC)
Max El. Az.
Max El.
End time (UTC)
End Az.
35 mins2024-12-21 14:09:21.079Z183.942° SSW2024-12-21 14:26:21.079Z270.315° WNW43.804°2024-12-21 14:44:21.079Z355.163° N
17 mins2024-12-21 17:03:21.079Z270.436° WNW2024-12-21 17:11:21.079Z299.724° NW15.073°2024-12-21 17:20:21.079Z331.946° NNW
24 mins2024-12-21 23:02:21.079Z24.334° NE2024-12-21 23:13:21.079Z65.363° ENE20.791°2024-12-21 23:26:21.079Z113.192° SE
35 mins2024-12-22 01:40:21.079Z3.48° NNE2024-12-22 01:57:21.079Z107.282° ESE44.976°2024-12-22 02:15:21.079Z186.87° SSW
24 mins2024-12-22 04:22:21.079Z347.187° N2024-12-22 04:34:21.079Z301.398° NW24.276°2024-12-22 04:46:21.079Z256.825° W
28 mins2024-12-22 11:46:21.079Z120.246° SE2024-12-22 11:59:21.079Z64.264° ENE31.6°2024-12-22 12:14:21.079Z5.761° NNE
|